TimeEST,TemperatureF,Dew PointF,Humidity,Sea Level PressureIn,VisibilityMPH,Wind Direction,Wind SpeedMPH,Gust SpeedMPH,PrecipitationIn,Events,Conditions,WindDirDegrees,DateUTC
12:51 AM,25.0,18.0,75,30.64,10.0,WNW,4.6,-,N/A,,Clear,290,2012-11-19 05:51:00
1:51 AM,24.1,18.0,77,30.64,10.0,Calm,Calm,-,N/A,,Clear,0,2012-11-19 06:51:00
2:51 AM,26.1,19.0,75,30.62,10.0,Calm,Calm,-,N/A,,Clear,0,2012-11-19 07:51:00
3:51 AM,25.0,19.0,78,30.61,10.0,Calm,Calm,-,N/A,,Clear,0,2012-11-19 08:51:00
4:51 AM,24.8,19.4,80,30.60,10.0,WNW,3.5,-,N/A,,Clear,290,2012-11-19 09:51:00
5:51 AM,24.1,19.9,84,30.59,10.0,Calm,Calm,-,N/A,,Clear,0,2012-11-19 10:51:00
6:51 AM,26.1,19.9,78,30.59,10.0,Calm,Calm,-,N/A,,Clear,0,2012-11-19 11:51:00
7:51 AM,28.9,23.0,78,30.58,10.0,WNW,3.5,-,N/A,,Clear,300,2012-11-19 12:51:00
8:51 AM,34.0,24.1,67,30.56,10.0,NNW,3.5,-,N/A,,Clear,340,2012-11-19 13:51:00
9:51 AM,39.9,23.0,51,30.55,10.0,NNW,3.5,-,N/A,,Clear,340,2012-11-19 14:51:00
10:51 AM,45.0,21.0,39,30.51,10.0,NNW,5.8,-,N/A,,Clear,330,2012-11-19 15:51:00
11:51 AM,46.0,28.9,51,30.49,10.0,NNW,4.6,-,N/A,,Clear,330,2012-11-19 16:51:00
12:51 PM,46.0,32.0,58,30.46,10.0,ENE,3.5,-,N/A,,Clear,70,2012-11-19 17:51:00
1:51 PM,46.0,30.9,56,30.43,10.0,East,4.6,-,N/A,,Clear,80,2012-11-19 18:51:00
2:51 PM,45.0,32.0,60,30.42,10.0,ESE,4.6,-,N/A,,Clear,110,2012-11-19 19:51:00
3:51 PM,44.1,32.0,63,30.41,10.0,ESE,5.8,-,N/A,,Clear,110,2012-11-19 20:51:00
4:51 PM,39.9,32.0,73,30.40,10.0,Calm,Calm,-,N/A,,Clear,0,2012-11-19 21:51:00
5:51 PM,37.9,32.0,79,30.39,10.0,Calm,Calm,-,N/A,,Clear,0,2012-11-19 22:51:00
6:51 PM,34.0,30.0,85,30.38,10.0,Calm,Calm,-,N/A,,Clear,0,2012-11-19 23:51:00
7:51 PM,32.0,28.9,88,30.36,10.0,Calm,Calm,-,N/A,,Clear,0,2012-11-20 00:51:00
8:51 PM,30.2,28.4,93,30.33,10.0,WNW,3.5,-,N/A,,Clear,290,2012-11-20 01:51:00
9:51 PM,28.0,27.0,96,30.32,9.0,West,3.5,-,N/A,,Clear,280,2012-11-20 02:51:00
10:51 PM,30.0,27.0,88,30.30,8.0,Calm,Calm,-,N/A,,Clear,0,2012-11-20 03:51:00
11:51 PM,30.0,27.0,88,30.28,8.0,WNW,3.5,-,N/A,,Clear,290,2012-11-20 04:51:00